Showing default

OPS 3674 (VELA 4), 837

Orbit data source: Space-Track

OPS 3674 (VELA 4), 837 is a payload satellite owned by USAF SSD (US) in HEO that was launched on Fri, 17 Jul 1964 UTC via an ATLAS AGENA D launch vehicle from the Air Force Eastern Test Range (AFETR). Payload-class satellites include a variety of spacecraft equipped with specific instruments for various scientific and technological missions. These include communications satellites like Starlink; space stations such as the ISS; scientific satellites like the Hubble; Earth observation satellites from companies like Planet Labs, Umbra, and HawkEye 360; GPS; miniature CubeSats for education and research; and military/defense satellites.

Loading next visibility...
Identifier
837, 1964-040B
Orbit
HEO
Country
Flag of USUS
Related business
Manufacturer
TRW
Mission
Spacecraft
Bus & Motor
VELA, BE-3
Mass
~217 kg wet, 125 kg dry
Launch date (UTC)
1964-07-17 (62 years ago)
Launch vehicle
ATLAS AGENA D
Launch site
Air Force Eastern Test Range (AFETR)
Object type
Payload
Rocket body
Debris
Shape & HBR
Unknown
Radar Cross Section
Medium (>0.1 m² and <1 m²)

Expand to show TLE details & history
Last TLE update: 10 hours ago

TLE from 10 hours ago
0 OPS 3674 (VELA 4)
1   837U 64040B   26110.35622351  .00000347  00000-0  00000+0 0  9992
2   837  48.7338 123.0086 5863255 256.6246   0.6859  0.23995718 54582
Epoch: 2026-04-20T08:32Z
TLE epoch observation values (Epoch: 2026-04-20T08:32:57.711Z)
Latitude
-46.93103°
Longitude
36.92362°
Altitude
38,459.804 km
Speed
3.76 km/s
True Right ascension
00h 54m 26s
True Declination
-46° 54' 14"
Sunlit
Object was in daylight at epoch
Visualization orbit readout
Latitude
Unknown
Longitude
Unknown
Altitude
Unknown
Speed
Unknown
Apparent Right ascension
Unknown
Apparent Declination
Unknown
Sunlit
N/A
Visualization observer readout
Local Sidereal Time
01:38:06
Azimuth
Unknown
Elevation
Unknown
Doppler factor
Unknown
Orbital elements
Apogee altitude
167,150.986 km
Perigee altitude
38,873.971 km
Semi-major axis
109,390.616 km
Eccentricity
0.58633
Inclination
48.7338°
RAAN
123.0086°
Arg. of periapsis
256.6246°
True anomaly
3.24562°
Mean anomaly
0.6859°
Eccentric anomaly
1.65774°
Mean motion
0.05999 °/min
Orbital period
6,001.08 mins
BSTAR
0
Loading maneuver chart data...
Computing Atmospheric mass density...
Loading historical data...
Loading historical data...
Loading historical data...
Loading historical data...
Loading historical data...
Loading historical data...
Loading historical data...
Other satellites on launch #40 in the year 1964 (1964-07-17 UTC)

Documentation

Showing up to 5 results
|